period_start,C,m1,H,J0,J1,J2,J3,J4,J5,JA,JB,JC,JD,JJ,JK,JN,#
2017-12-23 00:00:33,0.01,2.42,0.00,19.57,23.31,26.52,14.23,48.77,1024.92,2042.95,2524.87,2534.05,2861.98,600.02,607.91,49.27,0000 0000 0000 0000 000000
2017-12-23 00:05:35,0.02,2.42,0.00,19.57,23.32,26.50,14.24,48.87,1024.92,2042.97,2524.12,2534.00,2861.73,599.53,607.47,49.32,0000 0000 0000 0000 000000
2017-12-23 00:10:36,0.02,2.42,0.00,19.61,23.32,26.49,14.26,48.83,1024.92,2042.94,2523.79,2533.84,2861.05,600.10,607.85,49.37,0000 0000 0000 0000 000000
2017-12-23 00:15:36,0.04,2.43,0.00,19.61,23.32,26.47,14.27,48.84,1024.92,2042.95,2523.05,2533.13,2860.99,600.12,607.98,49.42,0000 0000 0000 0000 000000
2017-12-23 00:20:38,0.02,2.43,0.00,19.62,23.33,26.52,14.25,48.80,1024.92,2042.99,2522.44,2532.99,2860.82,599.91,607.70,49.47,0000 0000 0000 0000 000000
2017-12-23 00:25:39,0.02,2.43,0.00,19.62,23.34,26.52,14.25,48.82,1024.92,2042.97,2522.03,2532.90,2860.06,599.93,607.82,49.53,0000 0000 0000 0000 000000
2017-12-23 00:30:41,0.02,2.43,0.00,19.62,23.34,26.57,14.25,48.85,1024.92,2042.96,2521.99,2532.31,2859.93,599.46,607.33,49.58,0000 0000 0000 0000 000000
2017-12-23 00:35:42,0.01,2.43,0.00,19.61,23.34,26.55,14.31,48.95,1024.92,2042.84,2521.77,2532.01,2859.16,599.78,607.76,49.63,0000 0000 0000 0000 000000
2017-12-23 00:40:43,-0.01,2.43,0.00,19.60,23.35,26.52,14.30,48.85,1024.92,2042.61,2521.09,2532.00,2859.00,599.65,607.49,49.68,0000 0000 0000 0000 000000
2017-12-23 00:45:44,-0.00,2.43,0.00,19.61,23.35,26.52,14.25,48.74,1024.92,2042.23,2520.93,2531.58,2858.69,600.40,608.30,49.73,0000 0000 0000 0000 000000
2017-12-23 00:50:46,0.05,2.43,0.00,19.61,23.36,26.53,14.17,48.67,1024.92,2042.35,2520.38,2531.11,2858.08,599.71,607.47,49.78,0000 0000 0000 0000 000000
2017-12-23 00:55:47,-0.00,2.43,0.00,19.67,23.37,26.50,14.25,48.70,1024.92,2042.29,2520.02,2531.00,2857.99,600.36,607.94,49.83,0000 0000 0000 0000 000000
2017-12-23 01:00:48,0.00,2.43,0.00,19.69,23.37,26.49,14.24,48.70,1024.92,2042.13,2520.00,2530.99,2857.53,599.80,607.61,49.88,0000 0000 0000 0000 000000
2017-12-23 01:05:50,0.03,2.43,0.00,19.67,23.37,26.47,14.24,48.72,1024.92,2042.04,2519.54,2530.74,2857.02,599.88,607.62,49.93,0000 0000 0000 0000 000000
2017-12-23 01:10:51,0.02,2.44,0.00,19.67,23.37,26.52,14.26,48.77,1024.92,2042.02,2519.00,2530.08,2856.94,599.83,607.58,49.98,0000 0000 0000 0000 000000
2017-12-23 01:15:52,0.01,2.44,0.00,19.69,23.37,26.56,14.24,48.63,1024.92,2042.01,2518.93,2530.00,2856.20,599.93,607.66,50.03,0000 0000 0000 0000 000000
2017-12-23 01:20:54,0.02,2.44,0.00,19.70,23.37,26.54,14.24,48.55,1024.92,2042.01,2518.17,2529.98,2856.01,600.25,608.09,50.08,0000 0000 0000 0000 000000
2017-12-23 01:25:55,0.01,2.44,0.00,19.69,23.37,26.58,14.22,48.52,1024.92,2042.01,2518.02,2529.79,2855.95,599.85,607.54,50.13,0000 0000 0000 0000 000000
2017-12-23 01:30:57,0.05,2.44,0.00,19.70,23.37,26.59,14.24,48.44,1024.92,2042.00,2517.73,2529.08,2855.23,599.93,607.65,50.18,0000 0000 0000 0000 000000
2017-12-23 01:35:57,0.01,2.44,0.00,19.73,23.37,26.53,14.30,48.50,1024.92,2042.00,2517.13,2528.99,2854.99,600.02,607.69,50.23,0000 0000 0000 0000 000000
2017-12-23 01:40:59,0.05,2.44,0.00,19.75,23.37,26.56,14.25,48.49,1024.93,2042.00,2516.72,2528.50,2854.25,599.94,607.54,50.28,0000 0000 0000 0000 000000
2017-12-23 01:46:00,0.03,2.45,0.00,19.77,23.37,26.55,14.22,48.44,1024.93,2042.00,2515.97,2528.00,2853.78,600.18,607.67,50.33,0000 0000 0000 0000 000000
2017-12-23 01:51:01,0.06,2.45,0.00,19.77,23.39,26.52,14.20,48.44,1024.93,2042.00,2515.00,2527.46,2853.03,599.83,607.31,50.38,0000 0000 0000 0000 000000
2017-12-23 01:56:03,0.04,2.45,0.00,19.79,23.39,26.53,14.20,48.55,1024.93,2042.00,2514.07,2526.87,2852.45,599.98,607.46,50.43,0000 0000 0000 0000 000000
2017-12-23 02:01:04,0.09,2.45,0.00,19.79,23.39,26.55,14.18,48.48,1024.94,2042.00,2513.08,2525.88,2851.36,599.74,607.41,50.49,0000 0000 0000 0000 000000
2017-12-23 02:06:05,0.11,2.46,0.00,19.79,23.39,26.61,14.15,48.48,1024.95,2041.98,2511.56,2524.66,2849.90,599.26,606.72,50.54,0000 0000 0000 0000 000000
2017-12-23 02:11:06,0.05,2.47,0.00,19.77,23.40,26.65,14.20,48.38,1024.95,2041.99,2510.35,2524.01,2849.05,599.74,607.29,50.59,0000 0000 0000 0000 000000
2017-12-23 02:16:07,0.06,2.47,0.00,19.77,23.40,26.60,14.23,48.48,1025.00,2041.99,2509.57,2523.36,2848.58,599.82,607.31,50.64,0000 0000 0000 0000 000000
2017-12-23 02:21:08,0.01,2.47,0.00,19.75,23.41,26.66,14.27,48.56,1025.10,2041.99,2509.02,2523.00,2847.98,599.87,607.57,50.69,0000 0000 0000 0000 000000
2017-12-23 02:26:09,0.04,2.47,0.00,19.78,23.42,26.66,14.26,48.48,1025.34,2041.98,2508.83,2522.66,2847.25,599.81,607.57,50.74,0000 0000 0000 0000 000000
2017-12-23 02:31:11,0.04,2.47,0.00,19.77,23.42,26.65,14.23,48.48,1025.39,2041.97,2507.86,2522.03,2846.76,599.70,607.52,50.79,0000 0000 0000 0000 000000
2017-12-23 02:36:12,0.07,2.48,0.00,19.74,23.42,26.66,14.27,48.40,1025.40,2041.98,2506.86,2521.39,2846.02,600.10,607.93,50.84,0000 0000 0000 0000 000000
2017-12-23 02:41:13,0.03,2.48,0.00,19.73,23.42,26.71,14.23,48.43,1025.40,2041.97,2506.03,2520.98,2845.34,599.98,607.78,50.89,0000 0000 0000 0000 000000
2017-12-23 02:46:14,0.05,2.48,0.00,19.74,23.42,26.64,14.18,48.37,1025.40,2041.98,2505.21,2520.36,2844.96,599.67,607.54,50.94,0000 0000 0000 0000 000000
2017-12-23 02:51:16,0.04,2.48,0.00,19.77,23.42,26.66,14.39,48.45,1025.39,2041.97,2504.39,2519.99,2844.16,600.33,608.11,50.99,0000 0000 0000 0000 000000
2017-12-23 02:56:17,0.04,2.49,0.00,19.77,23.42,26.70,14.31,48.56,1025.37,2041.97,2503.86,2519.49,2843.96,599.93,607.76,51.04,0000 0000 0000 0000 000000
2017-12-23 03:01:18,0.04,2.49,0.00,19.77,23.42,26.64,14.31,48.48,1025.39,2041.98,2503.24,2519.03,2843.29,600.17,608.09,51.09,0000 0000 0000 0000 000000
2017-12-23 03:06:19,0.00,2.49,0.00,19.78,23.42,26.62,14.24,48.33,1025.39,2041.98,2502.99,2518.99,2843.00,599.98,607.77,51.14,0000 0000 0000 0000 000000
2017-12-23 03:11:20,0.04,2.49,0.00,19.78,23.42,26.61,14.24,48.52,1025.38,2041.96,2502.40,2518.55,2842.78,599.88,607.66,51.19,0000 0000 0000 0000 000000
2017-12-23 03:16:22,0.02,2.49,0.00,19.75,23.42,26.67,14.25,48.58,1025.33,2041.97,2502.00,2518.03,2842.05,599.79,607.61,51.24,0000 0000 0000 0000 000000
2017-12-23 03:21:23,0.02,2.49,0.00,19.73,23.42,26.65,14.19,48.38,1025.10,2041.95,2501.44,2518.00,2841.98,599.98,607.64,51.29,0000 0000 0000 0000 000000
2017-12-23 03:26:24,0.02,2.49,0.00,19.72,23.43,26.71,14.21,48.47,1025.22,2041.94,2501.00,2517.82,2841.51,599.82,607.63,51.34,0000 0000 0000 0000 000000
2017-12-23 03:31:26,0.03,2.50,0.00,19.72,23.42,26.62,14.22,48.53,1025.40,2041.92,2500.74,2517.13,2841.04,600.03,608.02,51.40,0000 0000 0000 0000 000000
2017-12-23 03:36:27,0.02,2.50,0.00,19.74,23.42,26.65,14.19,48.50,1025.40,2041.95,2500.08,2517.01,2841.00,599.45,607.34,51.45,0000 0000 0000 0000 000000
2017-12-23 03:41:28,0.00,2.50,0.00,19.72,23.42,26.69,14.28,48.48,1025.40,2041.95,2500.00,2516.99,2840.98,600.17,608.21,51.50,0000 0000 0000 0000 000000
2017-12-23 03:46:29,0.01,2.50,0.00,19.68,23.42,26.74,14.29,48.39,1025.40,2041.96,2499.96,2516.94,2840.46,599.87,607.88,51.55,0000 0000 0000 0000 000000
2017-12-23 03:51:31,0.04,2.50,0.00,19.67,23.42,26.69,14.21,48.59,1025.40,2041.96,2499.31,2516.52,2840.01,599.47,607.47,51.60,0000 0000 0000 0000 000000
2017-12-23 03:56:33,0.01,2.50,0.00,19.68,23.42,26.69,14.26,48.57,1025.40,2041.95,2499.00,2516.05,2840.00,599.79,607.70,51.65,0000 0000 0000 0000 000000
2017-12-23 04:01:34,0.00,2.50,0.00,19.65,23.42,26.64,14.25,48.56,1025.40,2041.96,2498.99,2516.00,2839.97,600.01,608.13,51.70,0000 0000 0000 0000 000000
2017-12-23 04:06:36,0.01,2.50,0.00,19.63,23.42,26.63,14.21,48.52,1025.40,2041.90,2498.98,2516.00,2839.29,599.74,607.75,51.75,0000 0000 0000 0000 000000
2017-12-23 04:11:37,-0.00,2.50,0.00,19.62,23.42,26.60,14.23,48.47,1025.40,2041.72,2498.53,2515.97,2839.01,600.20,608.35,51.80,0000 0000 0000 0000 000000
2017-12-23 04:16:38,0.03,2.50,0.00,19.62,23.42,26.64,14.23,48.43,1025.40,2041.74,2498.04,2515.67,2839.00,599.97,608.29,51.85,0000 0000 0000 0000 000000
2017-12-23 04:21:40,0.02,2.51,0.00,19.64,23.42,26.56,14.25,48.44,1025.40,2041.81,2497.99,2515.23,2838.96,599.77,607.85,51.90,0000 0000 0000 0000 000000
2017-12-23 04:26:41,0.03,2.51,0.00,19.64,23.42,26.63,14.32,48.51,1025.40,2041.86,2497.74,2515.00,2838.64,600.29,608.27,51.95,0000 0000 0000 0000 000000
2017-12-23 04:31:43,0.02,2.51,0.00,19.62,23.42,26.66,14.25,48.56,1025.40,2041.91,2497.17,2515.00,2838.09,600.29,608.38,52.00,0000 0000 0000 0000 000000
2017-12-23 04:36:44,-0.01,2.51,0.00,19.59,23.41,26.62,14.36,48.58,1025.40,2041.83,2497.01,2514.97,2838.00,600.15,608.42,52.05,0000 0000 0000 0000 000000
2017-12-23 04:41:45,0.02,2.51,0.00,19.59,23.40,26.63,14.26,48.43,1025.40,2041.95,2496.98,2514.88,2837.99,600.00,608.14,52.10,0000 0000 0000 0000 000000
2017-12-23 04:46:47,0.03,2.51,0.00,19.59,23.40,26.56,14.28,48.40,1025.40,2041.94,2496.60,2514.45,2837.96,600.10,608.39,52.15,0000 0000 0000 0000 000000
2017-12-23 04:51:48,0.03,2.51,0.00,19.57,23.39,26.56,14.32,48.51,1025.42,2041.91,2496.02,2514.02,2837.23,600.19,608.53,52.20,0000 0000 0000 0000 000000
2017-12-23 04:56:50,0.01,2.51,0.00,19.54,23.38,26.56,14.31,48.57,1025.43,2041.95,2495.79,2513.97,2836.98,599.69,608.05,52.25,0000 0000 0000 0000 000000
2017-12-23 05:01:51,0.06,2.52,0.00,19.54,23.37,26.53,14.30,48.55,1025.42,2041.96,2495.04,2513.36,2836.57,599.98,608.30,52.30,0000 0000 0000 0000 000000
2017-12-23 05:06:53,0.01,2.52,0.00,19.53,23.37,26.52,14.25,48.43,1025.42,2041.98,2494.99,2513.02,2836.05,599.52,607.84,52.36,0000 0000 0000 0000 000000
2017-12-23 05:11:55,0.00,2.52,0.00,19.51,23.37,26.49,14.31,48.58,1025.42,2041.97,2494.85,2513.00,2836.00,600.05,608.42,52.41,0000 0000 0000 0000 000000
2017-12-23 05:16:56,0.02,2.52,0.00,19.49,23.36,26.47,14.31,48.48,1025.43,2041.97,2494.38,2512.99,2835.96,600.14,608.62,52.46,0000 0000 0000 0000 000000
2017-12-23 05:21:57,0.02,2.52,0.00,19.48,23.35,26.46,14.36,48.58,1025.42,2041.97,2494.01,2512.88,2835.52,600.43,608.92,52.51,0000 0000 0000 0000 000000
2017-12-23 05:26:58,0.03,2.52,0.00,19.47,23.35,26.45,14.24,48.56,1025.41,2041.98,2493.82,2512.34,2835.08,599.67,608.22,52.56,0000 0000 0000 0000 000000
2017-12-23 05:32:00,0.02,2.52,0.00,19.47,23.34,26.44,14.28,48.65,1025.41,2041.99,2493.22,2512.04,2835.01,600.19,608.56,52.61,0000 0000 0000 0000 000000
2017-12-23 05:37:01,-0.00,2.52,0.00,19.46,23.32,26.42,14.28,48.57,1025.41,2041.98,2493.02,2512.00,2834.99,599.65,608.04,52.66,0000 0000 0000 0000 000000
2017-12-23 05:42:02,0.00,2.52,0.00,19.44,23.32,26.46,14.27,48.67,1025.40,2041.99,2493.00,2512.00,2834.93,599.88,608.28,52.71,0000 0000 0000 0000 000000
2017-12-23 05:47:04,0.01,2.52,0.00,19.47,23.31,26.42,14.27,48.63,1025.40,2041.99,2492.96,2511.99,2834.35,599.89,608.28,52.76,0000 0000 0000 0000 000000
2017-12-23 05:52:05,0.02,2.52,0.00,19.45,23.30,26.42,14.17,48.62,1025.38,2041.99,2492.48,2511.92,2834.03,599.99,608.43,52.81,0000 0000 0000 0000 000000
2017-12-23 05:57:06,0.03,2.53,0.00,19.46,23.29,26.44,14.22,48.68,1025.37,2041.99,2492.01,2511.32,2834.00,599.85,608.29,52.86,0000 0000 0000 0000 000000
2017-12-23 06:02:07,0.00,2.53,0.00,19.48,23.27,26.42,14.22,48.69,1025.40,2041.99,2491.95,2511.03,2834.00,600.17,608.54,52.91,0000 0000 0000 0000 000000
2017-12-23 06:07:09,0.01,2.53,0.00,19.47,23.27,26.37,14.33,48.63,1025.42,2041.99,2491.49,2511.00,2833.99,599.89,608.26,52.96,0000 0000 0000 0000 000000
2017-12-23 06:12:10,0.01,2.53,0.00,19.45,23.26,26.46,14.29,48.55,1025.43,2042.00,2491.04,2511.00,2833.81,600.13,608.63,53.01,0000 0000 0000 0000 000000
2017-12-23 06:17:11,0.01,2.53,0.00,19.43,23.25,26.41,14.34,48.58,1025.44,2042.01,2491.00,2510.98,2833.26,600.19,608.63,53.06,0000 0000 0000 0000 000000
2017-12-23 06:22:12,0.02,2.53,0.00,19.42,23.24,26.42,14.35,48.58,1025.42,2042.00,2490.75,2510.83,2833.02,600.13,608.46,53.11,0000 0000 0000 0000 000000
2017-12-23 06:27:13,0.04,2.53,0.00,19.40,23.24,26.37,14.25,48.69,1025.41,2042.01,2490.06,2510.15,2833.00,600.03,608.47,53.16,0000 0000 0000 0000 000000
2017-12-23 06:32:14,0.00,2.53,0.00,19.40,23.23,26.33,14.27,48.72,1025.40,2042.02,2490.00,2510.04,2832.99,599.71,608.28,53.22,0000 0000 0000 0000 000000
2017-12-23 06:37:16,0.01,2.53,0.00,19.39,23.22,26.32,14.20,48.67,1025.40,2042.05,2489.88,2510.00,2832.87,599.66,608.17,53.27,0000 0000 0000 0000 000000
2017-12-23 06:42:17,0.03,2.53,0.00,19.41,23.22,26.37,14.30,48.73,1025.40,2042.07,2489.16,2509.99,2832.24,600.00,608.70,53.32,0000 0000 0000 0000 000000
2017-12-23 06:47:18,0.03,2.54,0.00,19.39,23.21,26.38,14.23,48.74,1025.40,2042.14,2488.99,2509.64,2832.00,599.90,608.58,53.37,0000 0000 0000 0000 000000
2017-12-23 06:52:20,0.07,2.54,0.00,19.39,23.20,26.39,14.26,48.80,1025.39,2042.40,2488.37,2509.07,2831.98,599.89,608.41,53.42,0000 0000 0000 0000 000000
2017-12-23 06:57:21,0.01,2.54,0.00,19.40,23.19,26.34,14.36,48.65,1025.40,2042.51,2488.00,2509.00,2831.33,600.60,609.18,53.47,0000 0000 0000 0000 000000
2017-12-23 07:02:22,0.06,2.54,0.00,19.39,23.19,26.38,14.32,48.77,1025.41,2042.76,2487.72,2508.95,2831.01,600.27,608.80,53.52,0000 0000 0000 0000 000000
2017-12-23 07:07:23,0.03,2.55,0.00,19.42,23.19,26.39,14.24,48.81,1025.41,2042.82,2487.09,2508.36,2830.97,599.80,608.60,53.57,0000 0000 0000 0000 000000
2017-12-23 07:12:24,0.03,2.55,0.00,19.39,23.19,26.40,14.27,48.82,1025.42,2042.89,2486.97,2508.02,2830.47,599.77,608.45,53.62,0000 0000 0000 0000 000000
2017-12-23 07:17:25,0.02,2.55,0.00,19.38,23.19,26.39,14.23,48.78,1025.41,2042.90,2486.57,2507.99,2830.02,599.75,608.30,53.67,0000 0000 0000 0000 000000
2017-12-23 07:22:26,0.01,2.55,0.00,19.41,23.19,26.38,14.28,48.75,1025.42,2042.95,2486.02,2507.95,2829.98,600.02,608.62,53.72,0000 0000 0000 0000 000000
2017-12-23 07:27:27,0.03,2.55,0.00,19.39,23.18,26.32,14.30,48.69,1025.42,2042.95,2486.00,2507.51,2829.77,599.66,608.32,53.77,0000 0000 0000 0000 000000
2017-12-23 07:32:28,0.03,2.55,0.00,19.42,23.17,26.39,14.31,48.72,1025.42,2042.90,2485.38,2507.03,2829.07,599.67,608.17,53.82,0000 0000 0000 0000 000000
2017-12-23 07:37:29,0.01,2.55,0.00,19.41,23.17,26.39,14.32,48.94,1025.48,2042.92,2485.00,2507.00,2829.00,600.32,609.00,53.87,0000 0000 0000 0000 000000
2017-12-23 07:42:31,0.03,2.55,0.00,19.39,23.17,26.35,14.29,48.79,1025.69,2042.96,2484.84,2506.78,2828.62,600.05,608.82,53.92,0000 0000 0000 0000 000000
2017-12-23 07:47:32,0.04,2.56,0.00,19.39,23.17,26.33,14.31,48.79,1025.61,2042.94,2484.07,2506.07,2828.03,600.24,608.82,53.97,0000 0000 0000 0000 000000
2017-12-23 07:52:33,0.01,2.56,0.00,19.40,23.17,26.34,14.22,48.72,1025.64,2042.95,2483.99,2506.00,2827.99,600.08,608.78,54.02,0000 0000 0000 0000 000000
2017-12-23 07:57:35,0.03,2.56,0.00,19.37,23.17,26.32,14.27,48.64,1025.81,2042.96,2483.48,2505.97,2827.67,599.66,608.49,54.07,0000 0000 0000 0000 000000
2017-12-23 08:02:36,0.04,2.56,0.00,19.37,23.17,26.31,14.28,48.76,1025.84,2042.97,2483.00,2505.47,2827.06,599.62,608.61,54.12,0000 0000 0000 0000 000000
2017-12-23 08:07:37,0.01,2.56,0.00,19.36,23.17,26.34,14.28,48.73,1025.73,2042.97,2482.76,2505.03,2826.99,599.95,608.82,54.17,0000 0000 0000 0000 000000
2017-12-23 08:12:38,0.02,2.56,0.00,19.34,23.17,26.33,14.27,48.76,1025.64,2042.96,2482.07,2505.00,2826.72,599.85,608.60,54.22,0000 0000 0000 0000 000000
2017-12-23 08:17:40,0.02,2.56,0.00,19.35,23.17,26.33,14.32,48.73,1025.60,2042.97,2481.97,2504.84,2826.06,600.10,608.86,54.28,0000 0000 0000 0000 000000
2017-12-23 08:22:42,0.04,2.57,0.00,19.32,23.17,26.38,14.31,48.80,1025.83,2042.96,2481.37,2504.14,2825.98,599.97,609.02,54.33,0000 0000 0000 0000 000000
2017-12-23 08:27:43,0.02,2.57,0.00,19.28,23.17,26.36,14.27,48.74,1025.88,2042.95,2481.00,2504.00,2825.45,599.71,608.85,54.38,0000 0000 0000 0000 000000
2017-12-23 08:32:44,0.02,2.57,0.00,19.29,23.16,26.31,14.25,48.71,1025.89,2042.95,2480.51,2503.94,2825.01,599.95,609.05,54.43,0000 0000 0000 0000 000000
2017-12-23 08:37:45,0.03,2.57,0.00,19.27,23.15,26.34,14.31,48.73,1025.89,2042.98,2480.01,2503.38,2824.98,600.06,609.20,54.48,0000 0000 0000 0000 000000
2017-12-23 08:42:47,0.03,2.57,0.00,19.23,23.15,26.31,14.24,48.72,1025.89,2042.97,2479.86,2503.02,2824.46,600.03,609.25,54.53,0000 0000 0000 0000 000000
2017-12-23 08:47:48,0.02,2.57,0.00,19.24,23.14,26.31,14.30,48.70,1025.89,2042.99,2479.10,2502.99,2824.01,599.87,609.30,54.58,0000 0000 0000 0000 000000
2017-12-23 08:52:49,0.01,2.57,0.00,19.22,23.14,26.28,14.28,48.73,1025.89,2042.99,2478.98,2502.83,2823.99,600.06,609.32,54.63,0000 0000 0000 0000 000000
2017-12-23 08:57:51,0.06,2.58,0.00,19.24,23.13,26.22,14.31,48.68,1025.89,2042.99,2478.44,2502.15,2823.48,599.96,609.01,54.68,0000 0000 0000 0000 000000
2017-12-23 09:02:52,0.01,2.58,0.00,19.23,23.12,26.23,14.27,48.70,1025.89,2042.99,2478.00,2502.00,2823.01,600.00,609.31,54.73,0000 0000 0000 0000 000000
2017-12-23 09:07:53,0.01,2.58,0.00,19.24,23.12,26.23,14.37,48.78,1025.89,2042.99,2477.68,2501.94,2822.92,600.06,609.27,54.78,0000 0000 0000 0000 000000
2017-12-23 09:12:54,0.05,2.58,0.00,19.24,23.11,26.27,14.32,48.82,1025.91,2042.99,2477.05,2501.34,2822.17,600.19,609.40,54.83,0000 0000 0000 0000 000000
2017-12-23 09:17:55,0.00,2.58,0.00,19.24,23.10,26.20,14.33,48.76,1025.91,2042.99,2476.98,2501.02,2822.00,600.42,609.56,54.88,0000 0000 0000 0000 000000
2017-12-23 09:22:56,0.03,2.58,0.00,19.20,23.09,26.21,14.30,48.77,1026.02,2042.99,2476.42,2500.95,2821.75,599.84,609.32,54.93,0000 0000 0000 0000 000000
2017-12-23 09:27:57,0.05,2.59,0.00,19.21,23.09,26.24,14.32,48.77,1026.13,2042.99,2475.74,2500.26,2821.03,599.89,609.13,54.98,0000 0000 0000 0000 000000
2017-12-23 09:32:59,0.01,2.59,0.00,19.20,23.09,26.18,14.37,48.75,1026.34,2043.00,2475.06,2500.00,2820.99,600.13,609.73,55.03,0000 0000 0000 0000 000000
2017-12-23 09:38:00,0.01,2.59,0.00,19.18,23.07,26.23,14.27,48.74,1026.34,2043.00,2474.99,2499.99,2820.49,599.79,609.43,55.08,0000 0000 0000 0000 000000
2017-12-23 09:43:01,0.03,2.59,0.00,19.21,23.07,26.19,14.29,48.72,1026.38,2043.01,2474.39,2499.80,2820.04,599.93,609.57,55.13,0000 0000 0000 0000 000000
2017-12-23 09:48:02,0.02,2.59,0.00,19.18,23.07,26.14,14.38,48.73,1026.37,2043.01,2474.00,2499.07,2819.99,600.16,609.88,55.19,0000 0000 0000 0000 000000
2017-12-23 09:53:03,0.02,2.59,0.00,19.18,23.06,26.19,14.35,48.83,1026.37,2043.02,2473.75,2499.00,2819.67,600.38,609.91,55.24,0000 0000 0000 0000 000000
2017-12-23 09:58:05,0.02,2.59,0.00,19.18,23.05,26.19,14.33,48.76,1026.38,2043.04,2473.05,2498.99,2819.05,600.39,609.93,55.29,0000 0000 0000 0000 000000
2017-12-23 10:03:06,0.02,2.59,0.00,19.17,23.04,26.14,14.36,48.72,1026.38,2043.07,2472.99,2498.70,2819.00,599.88,609.53,55.34,0000 0000 0000 0000 000000
2017-12-23 10:08:07,0.04,2.60,0.00,19.18,23.04,26.11,14.26,48.75,1026.38,2043.06,2472.45,2498.05,2818.69,600.18,609.72,55.39,0000 0000 0000 0000 000000
2017-12-23 10:13:09,0.02,2.60,0.00,19.18,23.02,26.12,14.31,48.67,1026.38,2043.09,2471.98,2498.00,2818.06,600.39,610.11,55.44,0000 0000 0000 0000 000000
2017-12-23 10:18:11,0.04,2.60,0.00,19.13,23.02,26.17,14.28,48.77,1026.38,2043.18,2471.26,2497.73,2817.99,599.64,609.42,55.49,0000 0000 0000 0000 000000
2017-12-23 10:23:12,0.06,2.60,0.00,19.13,23.02,26.14,14.36,48.75,1026.38,2043.43,2470.99,2497.06,2817.74,600.27,610.04,55.54,0000 0000 0000 0000 000000
2017-12-23 10:28:13,0.05,2.61,0.00,19.14,23.01,26.10,14.34,48.71,1026.28,2043.71,2470.47,2497.00,2817.08,599.80,609.37,55.59,0000 0000 0000 0000 000000
2017-12-23 10:33:14,0.02,2.61,0.00,19.09,23.00,26.12,14.30,48.70,1026.05,2043.84,2470.02,2496.92,2816.99,599.86,609.48,55.64,0000 0000 0000 0000 000000
2017-12-23 10:38:16,0.03,2.61,0.00,19.10,22.99,26.09,14.32,48.82,1026.17,2043.92,2469.90,2496.54,2816.80,600.16,609.91,55.69,0000 0000 0000 0000 000000
2017-12-23 10:43:17,0.04,2.61,0.00,19.11,22.99,26.13,14.30,48.88,1026.17,2043.89,2469.15,2496.03,2816.08,599.66,609.36,55.74,0000 0000 0000 0000 000000
2017-12-23 10:48:18,0.01,2.61,0.00,19.09,22.98,26.08,14.28,48.92,1026.15,2043.93,2469.00,2496.00,2816.00,599.69,609.47,55.79,0000 0000 0000 0000 000000
2017-12-23 10:53:19,0.00,2.61,0.00,19.12,22.97,26.06,14.37,48.79,1026.23,2043.94,2468.85,2495.99,2815.98,600.08,609.75,55.84,0000 0000 0000 0000 000000
2017-12-23 10:58:20,0.05,2.61,0.00,19.13,22.97,26.10,14.36,48.84,1026.35,2043.95,2468.10,2495.68,2815.38,600.15,609.89,55.89,0000 0000 0000 0000 000000
2017-12-23 11:03:21,0.03,2.62,0.00,19.09,22.96,26.12,14.26,48.75,1026.29,2043.98,2468.00,2495.16,2815.03,600.16,609.99,55.94,0000 0000 0000 0000 000000
2017-12-23 11:08:23,0.01,2.62,0.00,19.11,22.95,26.08,14.31,48.94,1026.28,2043.98,2467.71,2495.00,2814.98,599.90,609.67,55.99,0000 0000 0000 0000 000000
2017-12-23 11:13:24,0.02,2.62,0.00,19.06,22.94,26.08,14.31,48.99,1026.08,2043.98,2467.05,2495.00,2814.60,599.83,609.53,56.04,0000 0000 0000 0000 000000
2017-12-23 11:18:25,0.02,2.62,0.00,19.06,22.94,26.10,14.30,48.95,1026.13,2043.98,2466.98,2494.82,2814.04,599.91,609.54,56.10,0000 0000 0000 0000 000000
2017-12-23 11:23:26,0.04,2.62,0.00,19.06,22.93,26.06,14.29,49.07,1026.04,2043.99,2466.48,2494.18,2814.00,599.67,609.42,56.15,0000 0000 0000 0000 000000
2017-12-23 11:28:28,0.01,2.62,0.00,19.03,22.92,26.07,14.31,48.95,1025.95,2043.99,2466.02,2494.03,2813.86,600.17,609.73,56.20,0000 0000 0000 0000 000000
2017-12-23 11:33:29,0.03,2.62,0.00,19.03,22.92,26.02,14.24,48.84,1025.96,2043.99,2465.70,2493.98,2813.17,599.59,609.26,56.25,0000 0000 0000 0000 000000
2017-12-23 11:38:31,0.04,2.63,0.00,19.02,22.91,26.02,14.32,48.97,1025.94,2043.99,2465.01,2493.35,2812.94,600.25,609.85,56.30,0000 0000 0000 0000 000000
2017-12-23 11:43:32,0.03,2.63,0.00,19.01,22.90,26.01,14.35,48.99,1025.91,2043.99,2464.76,2493.01,2812.26,600.23,609.74,56.35,0000 0000 0000 0000 000000
2017-12-23 11:48:33,0.02,2.63,0.00,19.01,22.89,26.00,14.25,49.05,1025.91,2043.99,2464.05,2492.99,2812.00,599.58,609.37,56.40,0000 0000 0000 0000 000000
2017-12-23 11:53:34,0.02,2.63,0.00,18.98,22.88,25.98,14.19,48.93,1025.97,2043.99,2463.91,2492.67,2811.96,599.44,609.23,56.45,0000 0000 0000 0000 000000
2017-12-23 11:58:36,0.05,2.63,0.00,19.00,22.87,26.00,14.32,48.91,1025.92,2043.99,2463.21,2492.06,2811.33,599.89,609.72,56.50,0000 0000 0000 0000 000000
2017-12-23 12:03:37,0.00,2.63,0.00,19.00,22.87,25.96,14.29,48.91,1025.93,2043.99,2462.99,2492.00,2811.01,599.62,609.34,56.55,0000 0000 0000 0000 000000
2017-12-23 12:08:38,0.01,2.63,0.00,18.97,22.86,25.95,14.29,48.88,1025.92,2043.99,2462.60,2491.99,2810.98,599.61,609.47,56.60,0000 0000 0000 0000 000000
2017-12-23 12:13:40,0.04,2.63,0.00,18.98,22.85,25.96,14.33,48.83,1025.91,2044.01,2462.03,2491.70,2810.48,600.18,609.87,56.65,0000 0000 0000 0000 000000
2017-12-23 12:18:41,0.02,2.64,0.00,19.01,22.84,25.92,14.32,48.96,1025.90,2044.00,2461.97,2491.13,2810.03,599.84,609.51,56.70,0000 0000 0000 0000 000000
2017-12-23 12:23:42,0.02,2.64,0.00,19.00,22.84,25.90,14.32,48.95,1025.90,2044.01,2461.44,2491.00,2809.98,600.02,609.80,56.75,0000 0000 0000 0000 000000
2017-12-23 12:28:43,0.01,2.64,0.00,19.02,22.82,25.95,14.32,48.88,1025.90,2044.01,2461.02,2490.99,2809.66,600.08,609.71,56.80,0000 0000 0000 0000 000000
2017-12-23 12:33:45,0.03,2.64,0.00,19.02,22.82,25.96,14.27,48.97,1025.90,2044.03,2460.97,2490.51,2809.05,599.49,609.25,56.85,0000 0000 0000 0000 000000
2017-12-23 12:38:46,0.03,2.64,0.00,19.00,22.82,25.93,14.29,48.98,1025.90,2044.02,2460.30,2490.04,2809.00,599.82,609.48,56.90,0000 0000 0000 0000 000000
2017-12-23 12:43:47,0.01,2.64,0.00,19.02,22.82,25.97,14.32,48.76,1025.90,2044.01,2460.00,2490.00,2808.69,599.80,609.51,56.95,0000 0000 0000 0000 000000
2017-12-23 12:48:49,0.01,2.64,0.00,18.99,22.81,25.99,14.34,48.83,1025.90,2044.02,2459.99,2489.98,2808.05,600.08,609.79,57.00,0000 0000 0000 0000 000000
2017-12-23 12:53:50,0.03,2.64,0.00,18.98,22.80,26.02,14.30,48.96,1025.90,2044.04,2459.43,2489.64,2808.00,600.10,609.89,57.05,0000 0000 0000 0000 000000